sat.trackr.live / text

‹ back to catalog

STARLINK-34550

NORAD 64683 · 2025-139V

PAYLOAD ACTIVE UNKNOWN

§ Identity

Operator
Country
US
Launch date
2025-06-28
Launch site
AFETR
Launch vehicle
Mass (kg)
RCS (m²)

Purposes: comms

External: N2YO · Heavens-Above · Gunter

§ Orbital elements

Epoch: 2026-05-25T05:14:52.591200Z

Period
93.85 min
Inclination
53.1603°
Eccentricity
0.0001374
Mean motion
15.34405339 rev/d
Perigee alt
461.7 km
Apogee alt
463.6 km
Semi-major
6,840.8 km
B*
4.2907e-4
RAAN
130.6742°
Arg perigee
89.6621°
Mean anomaly
270.4539°
Rev number
5,201

§ Raw data

STARLINK-345501 64683U 25139V   26145.21866425  .00014150  00000+0  42907-3 0  99942 64683  53.1603 130.6742 0001374  89.6621 270.4539 15.34405339 52012

JSON: /api/v1/satellites/64683 · /tle

For live sub-satellite position, see the globe view (requires WebGL).

§ Visibility from observer

Set your observer location to see the next 7 days of passes ≥ 10°. The values pass through the URL so the page stays shareable.

No JS? Fill the form by hand. The geolocation button needs JavaScript.